VR2HK-13 Weather Reports


time (UTC)temp
C
wind
direction
speed
KPH
gust
KPH
rain 1hr
cm
rain 24hr
cm
rain mn
cm
humidity
%
barometer
mb
20260508085530 28 201 3.2 9.7 2.72 2.77 0.00 76 1010.7
20260508085521 28 161 3.2 9.7 2.72 2.77 0.00 76 1010.7
20260508085030 28 188 4.8 11.3 2.74 2.62 0.00 75 1010.8
20260508085010 28 206 4.8 11.3 2.74 2.62 0.00 75 1010.8
20260508084530 28 186 3.2 9.7 2.67 2.44 0.00 75 1010.8
20260508084501 28 229 4.8 9.7 2.67 2.44 0.00 75 1010.8
20260508084030 28 306 3.2 8.0 2.62 2.24 0.00 75 1010.8
20260508083950 28 147 4.8 9.7 2.62 2.18 0.00 75 1010.8
20260508083529 28 224 6.4 9.7 2.72 2.13 0.00 75 1010.8
20260508083441 28 196 4.8 9.7 2.77 2.13 0.00 75 1010.8
20260508083029 28 360 1.6 8.0 2.57 1.85 0.00 75 1010.7
20260508082930 28 228 1.6 8.0 2.51 1.78 0.00 75 1010.7
20260508082529 28 229 4.8 8.0 2.49 1.65 0.00 76 1010.7
20260508082421 28 208 3.2 9.7 2.44 1.68 0.00 75 1010.7
20260508082029 28 270 4.8 11.3 2.44 1.52 0.00 75 1010.8
20260508081910 28 216 3.2 11.3 2.49 1.57 0.00 76 1010.8
20260508081530 28 237 3.2 9.7 2.41 1.35 0.00 76 1010.8
20260508081401 28 201 4.8 9.7 2.44 1.35 0.00 76 1010.8
20260508081029 28 190 4.8 9.7 2.57 1.40 0.00 76 1010.8
20260508080851 28 225 6.4 9.7 2.39 1.24 0.00 76 1010.8
20260508080529 28 173 4.8 11.3 2.18 1.12 0.00 76 1010.8
20260508080341 28 184 4.8 11.3 2.06 0.99 0.00 76 1010.8
20260508080029 28 163 4.8 9.7 2.03 0.94 0.00 76 1010.9
20260508075831 28 203 4.8 9.7 2.03 0.86 0.00 76 1010.9
20260508075529 28 179 4.8 9.7 2.01 0.81 0.00 76 1010.9
20260508075320 28 186 4.8 9.7 1.93 0.79 0.00 76 1010.9
20260508075029 28 146 6.4 12.9 1.91 0.69 0.00 76 1011.0
20260508074811 28 159 6.4 12.9 1.88 0.66 0.00 75 1010.9
20260508074530 28 185 6.4 12.9 1.88 0.69 0.00 75 1010.9
20260508074300 28 240 8.0 12.9 1.83 0.69 0.00 75 1011.0
20260508074029 28 225 6.4 14.5 1.73 0.56 0.00 75 1010.9
20260508073751 28 174 9.7 14.5 1.60 0.46 0.00 75 1011.0
20260508073528 28 238 8.0 16.1 1.57 0.38 0.00 75 1011.0
20260508073241 28 207 9.7 17.7 1.60 0.36 0.00 74 1011.0
20260508073029 28 163 8.0 17.7 1.60 0.30 0.00 74 1011.0
20260508072731 28 136 6.4 17.7 1.57 0.28 0.00 74 1011.0
20260508072529 28 227 6.4 17.7 1.55 0.23 0.00 73 1011.0
20260508072220 29 245 8.0 14.5 1.57 0.23 0.00 72 1011.0
20260508071711 30 261 8.0 17.7 1.40 0.08 0.00 71 1011.1
20260508071528 30 263 9.7 16.1 1.42 0.13 0.00 70 1011.0
20260508071200 31 224 4.8 11.3 1.37 0.13 0.00 71 1011.1
20260508071029 30 30 1.6 9.7 1.35 0.08 0.00 70 1011.1
20260508070651 30 25 6.4 11.3 1.42 0.15 0.00 70 1011.2
20260508070528 30 37 3.2 11.3 1.50 0.13 0.00 71 1011.1
20260508070140 30 352 4.8 11.3 1.52 0.15 0.00 71 1011.2
20260508070029 30 70 4.8 12.9 1.50 0.13 0.00 71 1011.3
20260508065529 30 62 8.0 16.1 1.42 0.13 0.00 71 1011.3
20260508065120 31 261 8.0 16.1 1.45 0.23 0.00 70 1011.4
20260508065029 31 246 6.4 16.1 1.42 0.18 0.00 71 1011.4
20260508064611 31 25 3.2 12.9 1.50 0.23 0.00 70 1011.4
20260508064528 30 17 1.6 12.9 1.45 0.20 0.00 71 1011.4
20260508064100 30 32 4.8 12.9 1.60 0.20 0.00 71 1011.4
20260508064029 30 249 6.4 12.9 1.60 0.20 0.00 71 1011.4
20260508063550 30 231 6.4 14.5 1.68 0.18 0.00 72 1011.5
20260508063528 30 257 6.4 16.1 1.68 0.18 0.00 72 1011.5
20260508063040 30 242 6.4 11.3 1.73 0.03 0.00 72 1011.6
20260508063028 30 256 4.8 11.3 1.73 0.03 0.00 72 1011.6
20260508062531 30 5 4.8 12.9 1.68 0.08 0.00 72 1011.7
20260508062529 30 43 4.8 12.9 1.68 0.08 0.00 72 1011.7
20260508062028 30 12 9.7 19.3 1.55 25.37 0.00 72 1011.7
20260508062020 30 54 8.0 19.3 1.55 25.37 0.00 72 1011.7
20260508061529 30 359 6.4 19.3 1.45 0.00 0.00 72 1011.7
20260508061510 30 307 4.8 19.3 1.45 0.00 0.00 72 1011.7
20260508061028 30 360 9.7 24.1 1.50 0.03 0.00 72 1011.7
20260508061000 30 335 8.0 24.1 1.50 0.03 0.00 72 1011.7
20260508060529 30 290 4.8 19.3 1.37 25.30 0.00 73 1011.7
20260508060450 30 2 3.2 19.3 1.37 25.30 0.00 73 1011.8
20260508060028 30 28 4.8 12.9 1.30 25.35 0.00 73 1011.8
20260508055939 30 234 6.4 16.1 1.30 25.35 0.00 73 1011.8
20260508055528 29 253 11.3 19.3 1.37 25.30 0.00 72 1011.8
20260508055430 29 247 9.7 19.3 1.37 25.27 0.00 72 1011.8
20260508055028 30 240 9.7 16.1 1.37 25.27 0.00 70 1011.8
20260508054919 31 240 11.3 16.1 1.40 25.27 0.00 70 1011.8
20260508054528 31 281 4.8 12.9 1.42 25.30 0.00 71 1011.8
20260508054410 31 345 6.4 12.9 1.37 25.27 0.00 71 1011.8
20260508054029 30 322 4.8 20.9 1.35 25.20 0.00 72 1011.8
20260508053859 30 334 6.4 20.9 1.35 25.12 0.00 72 1011.8
20260508053528 30 59 3.2 19.3 1.42 25.07 0.00 72 1011.8
20260508053349 30 337 4.8 19.3 1.35 25.02 0.00 72 1011.9
20260508053029 30 228 3.2 16.1 1.24 24.92 0.00 73 1012.0
20260508052839 30 95 8.0 16.1 1.24 24.92 0.00 72 1012.1
20260508052329 30 224 6.4 16.1 1.35 24.94 0.00 73 1012.1
20260508052028 30 213 6.4 16.1 1.27 25.02 0.00 73 1012.1
20260508051820 30 268 6.4 14.5 1.35 25.02 0.00 72 1012.1
20260508051528 30 217 9.7 17.7 1.42 24.97 0.00 72 1012.1
20260508051309 30 272 11.3 17.7 1.42 24.94 0.00 72 1012.1
20260508051028 30 243 11.3 17.7 1.42 24.87 0.00 71 1012.1
20260508050800 30 276 9.7 14.5 1.45 24.87 0.00 73 1012.2
20260508050528 29 229 8.0 11.3 1.55 24.87 0.00 74 1012.2
20260508050249 28 269 4.8 17.7 1.68 24.89 0.00 75 1012.2
20260508050028 28 259 8.0 17.7 1.78 24.89 0.00 75 1012.3
20260508045740 28 203 6.4 17.7 1.73 24.79 0.00 75 1012.2
20260508045527 28 229 11.3 17.7 1.73 24.74 0.00 75 1012.2
20260508045229 28 227 8.0 19.3 1.83 24.69 0.00 75 1012.3
20260508045028 28 225 8.0 19.3 1.85 24.69 0.00 75 1012.3
20260508044527 28 212 11.3 20.9 1.93 24.54 0.00 75 1012.4
20260508044209 28 243 12.9 20.9 2.06 24.54 0.00 75 1012.4
20260508044028 28 212 12.9 20.9 2.03 24.49 0.00 75 1012.4
20260508043700 28 210 11.3 19.3 1.96 24.46 0.00 74 1012.5
20260508043527 28 228 11.3 19.3 1.91 24.38 0.00 74 1012.6
20260508043149 29 204 11.3 16.1 2.01 24.36 0.00 73 1012.6
20260508043028 29 254 9.7 16.1 2.06 24.36 0.00 73 1012.6
20260508042639 28 271 6.4 12.9 2.11 24.28 0.00 74 1012.7
20260508042528 28 247 8.0 14.5 2.24 24.26 0.00 74 1012.7
20260508042128 28 236 8.0 16.1 2.39 24.23 0.00 74 1012.7
20260508042027 28 225 8.0 20.9 2.41 24.23 0.00 75 1012.7
20260508041619 28 198 12.9 20.9 2.51 24.10 0.00 75 1012.7
20260508041528 28 237 12.9 20.9 2.44 24.05 0.00 74 1012.7
20260508041108 28 223 6.4 19.3 2.59 23.95 0.00 76 1012.7
20260508041027 28 264 8.0 19.3 2.59 23.95 0.00 76 1012.7
20260508040559 28 252 12.9 22.5 2.59 23.83 0.00 76 1012.7
20260508040527 28 250 9.7 22.5 2.59 23.83 0.00 76 1012.7
20260508040049 28 236 11.3 24.1 2.41 23.57 0.00 76 1012.8
20260508040028 28 285 12.9 24.1 2.41 23.57 0.00 76 1012.7
20260508035527 28 221 9.7 20.9 2.62 23.47 0.00 76 1012.8
20260508035030 28 244 9.7 22.5 2.62 23.29 0.00 76 1012.8
20260508035028 28 242 9.7 22.5 2.62 23.29 0.00 76 1012.8
20260508034528 28 238 9.7 16.1 2.59 23.11 0.00 76 1012.8
20260508034519 28 259 8.0 16.1 2.59 23.11 0.00 76 1012.9
20260508034027 28 232 11.3 17.7 2.67 22.94 0.00 75 1012.9
20260508034009 28 238 11.3 17.7 2.62 22.91 0.00 75 1013.0
20260508033527 28 313 6.4 14.5 2.67 22.83 0.00 76 1013.0
20260508033457 28 253 6.4 14.5 2.72 22.81 0.00 76 1013.0
20260508033027 28 288 6.4 11.3 2.67 22.63 0.00 77 1013.1
20260508032949 28 266 4.8 11.3 2.69 22.61 0.00 77 1013.1
20260508032528 27 3 4.8 9.7 2.59 22.38 0.00 77 1013.1
20260508032439 27 29 4.8 9.7 2.54 22.28 0.00 77 1013.1
20260508032027 27 257 6.4 17.7 2.51 22.12 0.00 78 1013.2
20260508031928 27 278 8.0 17.7 2.41 22.05 0.00 77 1013.2
20260508031527 27 248 12.9 16.1 2.51 21.95 0.00 77 1013.2
20260508031419 27 234 9.7 16.1 2.67 21.87 0.00 77 1013.2
20260508030908 27 280 4.8 16.1 2.69 21.56 0.00 78 1013.3
20260508030527 27 266 9.7 12.9 2.69 21.49 0.00 78 1013.3
20260508030359 27 211 8.0 12.9 2.72 21.46 0.00 78 1013.3
20260508030027 27 284 1.6 14.5 2.74 21.49 0.00 78 1013.4
20260508025848 27 245 6.4 17.7 2.72 21.44 0.00 78 1013.4
20260508025527 27 8 3.2 17.7 2.67 21.21 0.00 78 1013.4
20260508025338 27 235 8.0 22.5 2.59 21.08 0.00 78 1013.4
20260508025027 27 198 11.3 22.5 2.69 20.98 0.00 77 1013.5
20260508024828 27 226 11.3 19.3 2.69 20.88 0.00 77 1013.4
20260508024527 27 241 9.7 17.7 2.74 20.80 0.00 77 1013.5
20260508024318 27 200 9.7 19.3 2.77 20.75 0.00 77 1013.5
20260508024026 27 221 8.0 19.3 2.67 20.60 0.00 76 1013.6
20260508023527 28 231 4.8 17.7 2.92 20.47 0.00 77 1013.7
20260508023258 27 248 11.3 17.7 2.92 20.29 0.00 77 1013.6
20260508023027 27 245 11.3 17.7 3.05 20.29 0.00 77 1013.7
20260508022748 27 218 9.7 16.1 2.95 20.17 0.00 77 1013.7
20260508022527 27 245 4.8 14.5 3.00 20.09 0.00 78 1013.8
20260508022238 27 220 11.3 19.3 3.00 20.02 0.00 78 1013.7
20260508022027 27 222 14.5 19.3 2.92 19.94 0.00 78 1013.7
20260508021728 27 213 8.0 16.1 2.82 19.79 0.00 77 1013.8
20260508021526 27 134 6.4 12.9 2.87 19.79 0.00 77 1013.9
20260508021218 27 113 3.2 20.9 2.51 19.33 0.00 78 1013.9
20260508021027 27 182 4.8 20.9 2.51 19.33 0.00 77 1013.9
20260508020708 27 191 9.7 17.7 2.54 19.18 0.00 77 1013.9
20260508020526 27 198 4.8 14.5 2.57 19.15 0.00 77 1013.9
20260508020158 27 260 8.0 12.9 2.59 19.10 0.00 78 1013.9
20260508020026 27 330 3.2 9.7 2.57 18.97 0.00 78 1013.9
20260508015648 27 178 4.8 11.3 2.57 18.77 0.00 79 1013.9
20260508015527 27 221 4.8 11.3 2.57 18.77 0.00 79 1013.9
20260508015137 27 197 6.4 12.9 2.39 18.59 0.00 78 1014.0
20260508015026 27 168 6.4 12.9 2.34 18.49 0.00 78 1014.1
20260508014628 27 258 6.4 12.9 2.24 18.31 0.00 78 1014.0
20260508014527 27 207 6.4 11.3 2.26 18.29 0.00 78 1014.0
20260508014117 27 199 6.4 12.9 2.21 18.19 0.00 78 1014.0
20260508014026 27 212 6.4 12.9 2.24 18.19 0.00 78 1014.0
20260508013608 27 201 4.8 9.7 1.88 17.81 0.00 78 1014.0
20260508013526 27 214 4.8 11.3 1.83 17.75 0.00 78 1014.0
20260508013026 26 219 6.4 11.3 1.57 17.58 0.00 78 1014.0
20260508012549 26 201 8.0 12.9 1.50 17.42 0.00 79 1013.9
20260508012037 26 203 6.4 12.9 1.42 17.35 0.00 79 1013.8
20260508012026 26 227 8.0 12.9 1.40 17.32 0.00 79 1013.8
20260508011529 26 213 6.4 12.9 1.27 17.20 0.00 79 1013.8
20260508011526 26 212 6.4 12.9 1.27 17.20 0.00 79 1013.8
20260508011026 26 192 6.4 9.7 1.24 17.12 0.00 78 1013.7
20260508011017 26 230 6.4 9.7 1.24 17.12 0.00 78 1013.7
20260508010526 26 184 4.8 9.7 1.07 16.92 0.00 78 1013.7
20260508010507 26 199 6.4 9.7 1.07 16.92 0.00 78 1013.7
20260508010026 26 180 4.8 8.0 0.91 16.69 0.00 78 1013.6
20260508005526 26 196 4.8 8.0 0.79 16.54 0.00 78 1013.7
20260508005026 26 193 4.8 9.7 0.79 16.48 0.00 78 1013.6
20260508004525 26 199 4.8 9.7 0.71 16.31 0.00 77 1013.6
20260508004026 27 200 6.4 9.7 0.58 16.18 0.00 77 1013.7
20260508003526 26 227 6.4 11.3 0.56 16.18 0.00 77 1013.7
20260508003027 26 207 6.4 11.3 0.56 16.15 0.00 78 1013.7
20260508002526 26 229 3.2 6.4 0.51 16.10 0.00 78 1013.6
20260508002025 26 200 4.8 6.4 0.46 16.08 0.00 79 1013.6
20260508001526 26 247 3.2 8.0 0.43 16.03 0.00 80 1013.5
20260508001025 26 235 3.2 8.0 0.46 16.00 0.00 80 1013.5
20260508000526 26 184 4.8 8.0 0.41 15.95 0.00 81 1013.5
20260508000026 26 234 4.8 8.0 0.38 15.88 0.00 81 1013.4
20260507235525 26 205 3.2 6.4 0.41 15.82 0.00 82 1013.5
20260507235026 26 213 3.2 8.0 0.36 15.80 0.00 82 1013.4
20260507234525 26 190 6.4 8.0 0.25 15.70 0.00 82 1013.4
20260507234025 25 190 3.2 6.4 0.23 15.67 0.00 82 1013.2
20260507233717 25 204 3.2 6.4 0.23 15.67 0.00 83 1013.2
20260507233526 25 195 3.2 6.4 0.23 15.67 0.00 83 1013.1
20260507233206 25 196 1.6 4.8 0.20 15.65 0.00 83 1013.2
20260507233025 25 187 3.2 4.8 0.20 15.65 0.00 83 1013.1
20260507232526 25 170 3.2 4.8 0.20 15.65 0.00 84 1013.1
20260507232146 25 164 3.2 8.0 0.20 15.65 0.00 84 1013.0
20260507232025 25 180 4.8 8.0 0.20 15.65 0.00 85 1013.0
20260507231525 25 186 3.2 6.4 0.23 15.65 0.00 85 1013.0
20260507231025 25 198 3.2 6.4 0.13 15.54 0.00 86 1013.0
20260507230525 25 157 3.2 6.4 0.13 15.54 0.00 86 1013.0
20260507230025 24 217 1.6 4.8 0.13 15.52 0.00 86 1012.9
20260507225525 24 180 1.6 4.8 0.05 15.44 0.00 86 1012.8
20260507225025 24 229 1.6 3.2 0.05 15.44 0.00 87 1012.7
20260507224525 24 178 1.6 3.2 0.05 15.44 0.00 87 1012.6
20260507224025 24 182 1.6 4.8 0.05 15.44 0.00 87 1012.5
20260507223025 24 61 0.0 1.6 0.05 15.44 0.00 87 1012.5
20260507222525 24 14 0.0 4.8 0.08 15.44 0.00 87 1012.5
20260507222025 24 169 1.6 3.2 0.10 15.44 0.00 87 1012.5
20260507221525 24 204 1.6 8.0 0.08 15.42 0.00 87 1012.5
20260507221024 24 236 1.6 8.0 0.10 15.42 0.00 87 1012.4
20260507220525 24 205 3.2 4.8 0.10 15.42 0.00 87 1012.4
20260507220024 24 229 1.6 3.2 0.08 15.37 0.00 87 1012.2
20260507215524 24 226 0.0 3.2 0.08 15.37 0.00 87 1012.2
20260507215025 24 153 1.6 3.2 0.10 15.37 0.00 87 1012.2
20260507214524 24 170 1.6 3.2 0.13 15.37 0.00 87 1012.2
20260507214025 24 164 1.6 4.8 0.13 15.37 0.00 87 1012.1
20260507213524 23 210 0.0 1.6 0.13 15.37 0.00 86 1012.0
20260507213025 24 42 0.0 1.6 0.13 15.37 0.00 86 1011.9
20260507212524 24 225 0.0 3.2 0.10 15.34 0.00 86 1011.9
20260507211524 24 303 0.0 3.2 0.13 15.32 0.00 86 1011.8
20260507211024 24 170 1.6 6.4 0.10 15.29 0.00 86 1011.7
20260507210525 24 205 1.6 4.8 0.13 15.29 0.00 86 1011.8
20260507210024 24 25 0.0 3.2 0.18 15.29 0.00 86 1011.8
20260507205524 24 141 0.0 1.6 0.18 15.29 0.00 86 1011.7
20260507205024 24 298 0.0 1.6 0.18 15.27 0.00 86 1011.6
20260507204524 24 9 0.0 1.6 0.18 15.21 0.00 86 1011.4
20260507204024 24 5 1.6 3.2 0.20 15.21 0.00 86 1011.4
20260507203524 24 107 1.6 4.8 0.20 15.21 0.00 85 1011.4
20260507203024 24 0 1.6 6.4 0.23 15.21 0.00 85 1011.4
20260507202524 24 22 0.0 6.4 0.36 15.21 0.00 85 1011.4
20260507202024 24 83 4.8 9.7 0.38 15.19 0.00 85 1011.3
20260507201523 24 328 1.6 6.4 0.41 15.16 0.00 85 1011.2
20260507201024 24 277 0.0 3.2 0.51 15.16 0.00 85 1011.2
20260507200524 24 56 0.0 6.4 0.56 15.14 0.00 86 1011.2
20260507200023 24 111 1.6 4.8 0.69 15.11 0.00 86 1011.2
20260507195524 24 309 0.0 3.2 0.71 15.11 0.00 85 1011.2
20260507195023 24 5 0.0 1.6 0.79 15.09 0.00 85 1011.2
20260507194524 24 26 0.0 1.6 0.86 15.04 0.00 85 1011.1
20260507194023 24 286 0.0 1.6 0.86 15.01 0.00 86 1011.2
20260507193523 24 326 0.0 4.8 0.89 15.01 0.00 85 1011.1
20260507193024 24 294 0.0 3.2 0.94 14.99 0.00 86 1011.1
20260507192523 24 225 1.6 6.4 0.89 14.86 0.00 86 1011.1
20260507192024 24 261 0.0 0.0 0.86 14.81 0.00 85 1011.2
20260507191523 24 229 0.0 3.2 0.89 14.76 0.00 85 1011.2
20260507191023 24 213 1.6 1.6 0.84 14.66 0.00 85 1011.2
20260507190523 24 183 1.6 3.2 0.84 14.58 0.00 85 1011.3
20260507190023 24 225 1.6 4.8 0.79 14.43 0.00 85 1011.3
20260507185523 24 203 3.2 6.4 0.79 14.38 0.00 85 1011.5
20260507185023 24 237 1.6 3.2 0.74 14.27 0.00 85 1011.4
20260507184523 24 33 0.0 1.6 0.71 14.17 0.00 85 1011.4
20260507184023 24 19 0.0 1.6 0.71 14.15 0.00 84 1011.5
20260507183523 24 46 0.0 1.6 0.74 14.12 0.00 84 1011.5
20260507183023 24 24 0.0 1.6 0.69 14.02 0.00 84 1011.6
20260507182523 24 268 0.0 1.6 0.71 13.97 0.00 85 1011.7
20260507182022 24 245 1.6 1.6 0.74 13.94 0.00 85 1011.8
20260507181523 24 225 1.6 3.2 0.71 13.87 0.00 85 1011.8
20260507181023 24 177 1.6 3.2 0.76 13.84 0.00 85 1011.8
20260507180523 24 166 1.6 3.2 0.71 13.77 0.00 85 1011.8
20260507180023 24 159 3.2 4.8 0.69 13.64 0.00 85 1011.9
20260507175522 24 219 3.2 6.4 0.69 13.61 0.00 84 1011.9
20260507175023 25 174 3.2 4.8 0.61 13.54 0.00 84 1012.0
20260507174522 25 243 1.6 6.4 0.58 13.49 0.00 84 1012.0
20260507174023 25 247 1.6 4.8 0.56 13.46 0.00 84 1012.0
20260507173523 25 215 1.6 1.6 0.56 13.39 0.00 84 1012.0
20260507173022 25 56 0.0 1.6 0.53 13.36 0.00 84 1012.1
20260507172523 25 62 1.6 3.2 0.56 13.28 0.00 84 1012.1
20260507172022 25 58 1.6 1.6 0.64 13.21 0.00 84 1012.1
20260507172004 25 54 0.0 1.6 0.61 13.16 0.00 84 1012.1
20260507171522 25 50 0.0 3.2 0.61 13.16 0.00 84 1012.1
20260507171454 25 37 0.0 3.2 0.71 13.16 0.00 84 1012.1
20260507171022 25 49 1.6 4.8 0.71 13.06 0.00 84 1012.1
20260507170943 25 27 1.6 4.8 0.71 13.06 0.00 84 1012.1
20260507170434 25 19 0.0 3.2 0.76 13.00 0.00 84 1012.2
20260507170022 25 65 1.6 6.4 0.74 12.95 0.00 84 1012.1
20260507165923 25 41 1.6 6.4 0.79 12.95 0.00 84 1012.1
20260507165522 25 42 0.0 4.8 0.86 12.93 0.00 84 1012.3
20260507165414 25 48 0.0 4.8 0.86 12.93 0.00 84 1012.2
20260507165022 25 46 1.6 3.2 0.91 12.93 0.00 83 1012.3
20260507164903 25 9 1.6 3.2 0.94 12.93 0.00 83 1012.2
20260507164522 25 69 1.6 3.2 0.91 12.88 0.00 83 1012.3
20260507164355 25 17 0.0 3.2 0.97 12.88 0.00 83 1012.2
20260507164022 25 29 1.6 6.4 1.02 12.88 0.00 83 1012.3
20260507163843 25 63 3.2 6.4 1.07 12.88 0.00 83 1012.3
20260507163522 25 43 3.2 6.4 1.02 12.83 0.00 83 1012.3
20260507163333 25 38 1.6 4.8 1.07 12.83 0.00 83 1012.4
20260507163022 25 22 3.2 4.8 1.09 12.83 0.00 83 1012.3
20260507162522 25 54 1.6 4.8 1.07 12.70 0.00 83 1012.5
20260507162313 25 53 3.2 4.8 1.04 12.65 0.00 83 1012.4
20260507162022 25 56 0.0 3.2 1.02 12.55 0.00 83 1012.5
20260507161521 25 46 1.6 4.8 1.02 12.52 0.00 83 1012.5
20260507161253 25 49 1.6 4.8 1.02 12.45 0.00 83 1012.5
20260507161022 25 46 1.6 3.2 0.94 12.34 0.00 83 1012.5
20260507160743 25 66 0.0 3.2 0.89 12.27 0.00 83 1012.5
20260507160522 25 25 0.0 6.4 0.91 12.27 0.00 83 1012.5
20260507160233 25 40 3.2 8.0 0.91 12.22 0.00 83 1012.5
20260507160022 25 17 3.2 8.0 0.94 12.19 0.00 83 1012.6
20260507155723 25 22 3.2 6.4 0.97 12.12 0.00 83 1012.5
20260507155522 25 88 0.0 9.7 0.91 12.04 0.00 83 1012.5
20260507155213 25 343 4.8 9.7 1.07 12.01 0.00 82 1012.5
20260507155022 25 56 0.0 8.0 1.04 11.99 0.00 82 1012.5
20260507154703 25 242 3.2 6.4 1.09 11.96 0.00 82 1012.5
20260507154521 25 322 0.0 4.8 1.09 11.96 0.00 82 1012.5
20260507154153 25 45 0.0 1.6 1.04 11.89 0.00 82 1012.5
20260507154022 25 26 0.0 9.7 1.02 11.86 0.00 82 1012.5
20260507153643 25 39 4.8 9.7 0.97 11.81 0.00 82 1012.5
20260507153521 25 3 4.8 8.0 1.02 11.81 0.00 82 1012.5
20260507153133 25 44 1.6 4.8 1.04 11.73 0.00 82 1012.6
20260507153023 25 65 1.6 4.8 1.02 11.71 0.00 82 1012.6
20260507152521 25 31 1.6 6.4 0.97 11.63 0.00 82 1012.6
20260507152113 25 284 1.6 6.4 0.97 11.53 0.00 82 1012.7
20260507152022 25 351 1.6 6.4 0.97 11.53 0.00 82 1012.7
20260507151602 25 30 3.2 6.4 1.07 11.51 0.00 82 1012.8
20260507151521 25 27 3.2 6.4 1.07 11.51 0.00 82 1012.8
20260507151053 25 43 1.6 6.4 0.97 11.38 0.00 82 1012.8
20260507151021 25 62 1.6 6.4 0.97 11.38 0.00 82 1012.8
20260507150542 25 59 1.6 4.8 1.09 11.33 0.00 82 1012.9
20260507150521 25 61 1.6 4.8 1.09 11.33 0.00 82 1012.9
20260507150033 25 337 0.0 3.2 1.24 11.23 0.00 82 1012.8
20260507150021 25 350 0.0 3.2 1.24 11.23 0.00 82 1012.8
20260507145523 25 27 0.0 6.4 1.19 11.13 0.00 82 1012.8
20260507145521 25 25 0.0 6.4 1.19 11.13 0.00 82 1012.8
20260507145022 25 294 0.0 4.8 1.19 10.95 0.00 82 1012.8
20260507145012 25 303 0.0 4.8 1.17 10.87 0.00 82 1012.8
20260507144521 25 65 1.6 6.4 1.24 10.85 0.00 83 1012.8
20260507144021 25 25 3.2 11.3 1.40 10.85 0.00 83 1012.8
20260507143521 25 56 8.0 12.9 1.42 10.79 0.00 83 1012.9
20260507143021 25 10 1.6 14.5 1.50 10.69 0.00 83 1012.7
20260507142522 25 331 3.2 9.7 1.52 10.64 0.00 83 1012.8
20260507142021 25 21 0.0 6.4 1.60 10.52 0.00 83 1012.7
20260507141521 25 52 1.6 16.1 1.57 10.44 0.00 82 1012.6
20260507141020 25 44 9.7 12.9 1.52 10.34 0.00 82 1012.6
20260507140521 25 298 1.6 6.4 1.42 10.16 0.00 83 1012.6
20260507140021 25 319 0.0 9.7 1.35 9.98 0.00 83 1012.6
20260507135521 25 357 3.2 14.5 1.40 9.88 0.00 82 1012.5
20260507135021 25 85 3.2 17.7 1.24 9.70 0.00 83 1012.5
20260507134520 25 75 6.4 19.3 1.17 9.53 0.00 83 1012.5
20260507134021 25 357 3.2 8.0 1.12 9.40 0.00 83 1012.3
20260507133520 25 350 1.6 9.7 1.19 9.35 0.00 83 1012.3
20260507133021 25 18 4.8 9.7 1.09 9.19 0.00 83 1012.2
20260507132520 25 146 3.2 8.0 1.17 9.12 0.00 83 1012.1
20260507131520 25 11 0.0 3.2 1.12 8.84 0.00 83 1012.1
20260507131202 25 307 0.0 3.2 1.12 8.81 0.00 83 1011.9
20260507131021 25 352 1.6 3.2 1.22 8.81 0.00 83 1012.0
20260507130651 25 276 0.0 6.4 1.24 8.74 0.00 83 1012.0
20260507130520 25 240 3.2 6.4 1.22 8.71 0.00 83 1012.0
20260507130142 25 230 1.6 11.3 1.12 8.64 0.00 83 1012.0
20260507130020 25 4 1.6 11.3 1.12 8.64 0.00 83 1012.0
20260507125631 25 66 1.6 6.4 1.09 8.53 0.00 83 1011.9
20260507125520 25 141 3.2 6.4 1.09 8.48 0.00 83 1011.9
20260507125122 25 288 1.6 4.8 1.17 8.46 0.00 83 1011.8
20260507125020 25 206 1.6 4.8 1.17 8.46 0.00 83 1011.8
20260507124611 25 321 1.6 6.4 1.19 8.38 0.00 83 1011.7
20260507124520 25 58 3.2 9.7 1.17 8.36 0.00 83 1011.7
20260507124102 25 29 4.8 16.1 1.19 8.33 0.00 82 1011.6
20260507124020 25 20 6.4 16.1 1.12 8.26 0.00 82 1011.6
20260507123552 25 16 1.6 6.4 1.09 8.15 0.00 82 1011.6
20260507123520 25 28 1.6 6.4 1.09 8.15 0.00 82 1011.5
20260507123041 25 283 0.0 8.0 1.09 8.13 0.00 82 1011.5
20260507123020 25 255 0.0 8.0 1.12 8.13 0.00 82 1011.6
20260507122520 25 227 3.2 9.7 1.09 7.98 0.00 82 1011.4
20260507122022 25 334 1.6 9.7 1.04 7.87 0.00 82 1011.3
20260507122020 25 336 1.6 9.7 1.04 7.87 0.00 82 1011.3
20260507121521 25 249 3.2 12.9 0.97 7.72 0.00 82 1011.4
20260507121511 25 196 3.2 12.9 0.97 7.72 0.00 82 1011.3
20260507121020 25 262 1.6 14.5 0.91 7.59 0.00 82 1011.4
20260507121001 25 267 1.6 14.5 0.91 7.59 0.00 82 1011.4
20260507120520 25 277 4.8 12.9 0.94 7.52 0.00 82 1011.3
20260507120452 25 153 6.4 12.9 0.94 7.52 0.00 82 1011.3
20260507120020 25 235 6.4 9.7 0.97 7.52 0.00 81 1011.2
20260507115941 25 215 3.2 8.0 0.97 7.52 0.00 81 1011.2
20260507115520 25 289 1.6 11.3 0.91 7.39 0.00 81 1011.2
20260507115431 25 259 1.6 11.3 0.94 7.39 0.00 81 1011.2
20260507115020 25 224 4.8 12.9 0.91 7.32 0.00 81 1011.1
20260507114921 25 249 4.8 12.9 0.94 7.32 0.00 81 1011.1
20260507114520 25 238 4.8 9.7 0.89 7.21 0.00 81 1011.0
20260507114411 25 279 1.6 9.7 0.89 7.21 0.00 81 1011.0
20260507114019 25 232 3.2 11.3 0.86 7.16 0.00 81 1010.9
20260507113901 25 297 3.2 11.3 0.76 7.06 0.00 81 1010.9
20260507113520 25 295 1.6 4.8 0.84 7.06 0.00 81 1011.0
20260507113351 25 272 3.2 4.8 0.84 7.06 0.00 81 1011.0
20260507113019 25 324 0.0 12.9 0.79 6.99 0.00 81 1011.0
20260507112841 25 29 3.2 12.9 0.76 6.91 0.00 81 1011.0
20260507112520 25 215 8.0 11.3 0.71 6.86 0.00 81 1010.9
20260507112330 25 307 1.6 11.3 0.71 6.83 0.00 81 1010.9
20260507112019 25 346 3.2 11.3 0.71 6.83 0.00 81 1010.8
20260507111821 25 147 0.0 16.1 0.69 6.76 0.00 80 1010.8
20260507111520 25 248 6.4 16.1 0.64 6.73 0.00 80 1010.8
20260507111310 25 206 8.0 12.9 0.61 6.71 0.00 80 1010.9
20260507111019 25 247 6.4 11.3 0.58 6.68 0.00 80 1010.9
20260507110824 25 282 3.2 12.9 0.53 6.63 0.00 80 1010.9
20260507110520 25 238 4.8 12.9 0.46 6.55 0.00 80 1010.8
20260507110250 25 34 3.2 8.0 0.46 6.55 0.00 80 1010.9
20260507110019 25 187 1.6 4.8 0.43 6.53 0.00 80 1010.9
20260507105741 25 219 1.6 11.3 0.41 6.50 0.00 80 1010.8
20260507105519 25 276 4.8 11.3 0.38 6.48 0.00 80 1010.8
20260507105239 25 285 0.0 14.5 0.30 6.40 0.00 80 1010.8
20260507105020 25 336 4.8 17.7 0.28 6.38 0.00 80 1010.8
20260507104720 25 42 1.6 19.3 0.30 6.35 0.00 80 1010.8
20260507104519 25 59 8.0 19.3 0.28 6.32 0.00 80 1010.8
20260507104222 25 267 0.0 8.0 0.25 6.30 0.00 80 1010.7
20260507104020 25 132 1.6 8.0 0.25 6.30 0.00 80 1010.7
20260507103701 26 186 3.2 8.0 0.23 6.25 0.00 80 1010.7
20260507103519 26 19 0.0 9.7 0.20 6.22 0.00 80 1010.6
20260507103151 26 53 0.0 8.0 0.20 6.20 0.00 80 1010.6
20260507103020 26 23 0.0 8.0 0.18 6.17 0.00 79 1010.6
20260507102641 26 332 3.2 17.7 0.13 6.15 0.00 79 1010.5
20260507102519 26 355 9.7 19.3 0.13 6.15 0.00 79 1010.5
20260507102131 26 215 12.9 19.3 0.13 6.10 0.00 77 1010.4
20260507102019 26 185 8.0 19.3 0.13 6.10 0.00 77 1010.4
20260507101627 27 223 9.7 19.3 0.18 6.07 0.00 76 1010.4
20260507101519 27 243 9.7 16.1 0.18 6.07 0.00 76 1010.3
20260507101111 27 253 4.8 14.5 0.25 6.07 0.00 76 1010.4
20260507101019 27 266 0.0 14.5 0.28 6.07 0.00 76 1010.4
20260507100602 27 230 0.0 9.7 0.28 6.07 0.00 76 1010.4
20260507100519 27 272 3.2 9.7 0.28 6.07 0.00 76 1010.4
20260507100050 27 240 3.2 14.5 0.30 6.07 0.00 76 1010.4
20260507100019 27 279 4.8 14.5 0.30 6.07 0.00 76 1010.4
20260507095541 27 246 6.4 20.9 0.30 6.07 0.00 75 1010.3
20260507095030 27 222 9.7 14.5 0.36 6.07 0.00 75 1010.2
20260507095019 27 213 9.7 14.5 0.36 6.07 0.00 75 1010.2
20260507094522 27 317 9.7 22.5 0.30 6.02 0.00 75 1010.2
20260507094519 27 325 9.7 22.5 0.30 6.02 0.00 75 1010.2
20260507094019 28 257 9.7 17.7 0.36 6.02 0.00 74 1010.3
20260507094010 28 258 8.0 17.7 0.36 6.02 0.00 74 1010.3
20260507093519 28 220 6.4 20.9 0.38 6.02 0.00 74 1010.2
20260507093500 28 189 6.4 20.9 0.38 6.02 0.00 74 1010.2
20260507093018 28 254 6.4 16.1 0.43 5.99 0.00 74 1010.2
20260507092950 28 249 4.8 16.1 0.43 5.99 0.00 74 1010.2
20260507092519 28 230 4.8 16.1 0.51 6.02 0.00 74 1010.3
20260507092440 28 68 4.8 16.1 0.51 6.02 0.00 74 1010.3
20260507092018 28 252 11.3 16.1 0.56 5.99 0.00 72 1010.2
20260507091930 28 237 11.3 16.1 0.56 5.99 0.00 72 1010.2
20260507091420 28 253 3.2 17.7 0.56 5.92 0.00 74 1010.2
20260507091018 28 236 9.7 16.1 0.53 5.82 0.00 73 1010.2
20260507090910 28 227 8.0 12.9 0.53 5.82 0.00 74 1010.3
20260507090519 27 279 4.8 20.9 0.64 5.84 0.00 75 1010.2
20260507090400 27 181 11.3 24.1 0.69 5.84 0.00 74 1010.3
20260507090019 27 225 9.7 24.1 0.69 5.82 0.00 73 1010.3
20260507085850 28 227 9.7 20.9 0.71 5.82 0.00 73 1010.2